RH
37 42 47 48 58 59 53 52 53 49 50 55 44 37 43 44 44 43 41 46 54 58 59 58 60 64 62 58 57 61 63 67 72 72 77 73 75 82 80 82 85 97 100 99 98 93 98 98 98 98 98 99 98 98 99 100 91 82 73 68 87 87 76 84 80 81 89 85 82 81 83 85 87 89 86 91 82 64 64 64 61 61 68 77 82 86 85 89 89 89 92 91 96 99 100 99 87
36 38 43 46 57 57 50 52 55 48 48 53 40 35 44 43 41 41 46 52 55 57 54 54 58 63 62 59 58 59 64 67 73 74 70 70 72 80 87 87 90 99 99 97 98 100 98 94 99 100 99 100 99 99 99 100 96 90 85 81 87 83 78 82 84 88 89 86 86 84 85 87 89 92 90 90 84 72 67 66 64 64 73 82 85 87 84 84 84 82 83 85 91 96 99 101 93
33 40 48 48 53 55 49 52 55 50 51 47 34 34 43 43 39 43 52 55 55 54 51 55 56 58 62 59 59 55 58 59 60 66 61 63 69 81 94 90 93 100 98 96 98 101 98 96 100 100 99 100 100 100 99 99 99 95 92 88 82 74 71 76 87 92 87 84 85 83 83 88 91 93 94 91 83 72 69 70 66 65 79 89 87 85 82 80 79 76 74 75 83 92 96 100 97
30 41 50 50 48 49 47 50 51 48 49 38 31 34 39 42 41 45 49 52 52 51 51 55 52 50 53 54 57 49 53 58 53 57 50 56 71 86 98 93 96 100 99 99 99 101 99 100 100 100 100 100 100 99 100 99 100 98 95 90 83 79 76 78 87 91 86 81 84 84 83 87 90 94 96 93 85 75 73 74 72 71 77 85 87 85 82 78 77 76 74 70 77 92 96 99 97
38 43 45 51 45 45 46 45 43 43 42 33 34 34 33 36 40 44 43 50 51 49 55 54 49 49 48 49 53 46 49 58 55 55 46 57 79 93 98 94 99 99 100 100 99 101 99 101 99 100 100 99 101 99 99 99 100 99 97 95 92 91 85 81 88 93 88 82 86 88 87 88 90 93 95 94 86 79 81 80 78 78 78 79 81 86 87 83 79 77 77 73 75 90 97 99 97
45 44 43 50 46 46 47 42 38 33 35 36 35 32 30 32 37 43 40 48 54 53 57 54 50 50 46 45 50 46 47 54 57 56 49 63 87 93 81 78 99 101 99 101 99 101 99 100 100 100 100 100 100 99 99 97 99 99 98 100 98 98 95 92 94 96 94 89 90 92 92 92 93 93 94 96 90 83 83 85 83 81 81 81 78 81 88 89 87 83 80 78 76 85 94 99 99
44 43 42 43 43 44 41 37 33 26 32 35 32 30 30 32 37 38 34 40 50 53 57 54 49 49 45 42 44 44 47 49 50 56 62 74 86 88 68 61 90 101 99 101 99 100 100 100 100 100 100 100 100 100 99 96 98 100 100 100 100 100 100 99 98 99 99 97 96 96 96 96 96 94 94 95 94 92 86 84 85 84 82 83 82 79 82 86 89 88 84 83 79 83 92 97 99
40 43 40 36 36 39 38 34 30 27 30 30 28 29 28 34 36 33 31 32 39 44 51 54 49 49 49 42 40 41 46 48 49 61 70 75 83 86 71 54 72 97 101 100 100 100 100 100 100 100 100 100 100 100 100 98 98 100 100 99 100 100 100 100 99 100 100 99 98 98 99 99 99 97 96 94 96 97 91 88 87 88 83 84 90 84 82 85 87 88 87 87 82 84 91 95 99
33 37 37 32 31 33 36 32 28 28 28 26 24 25 22 29 34 32 31 26 31 36 38 46 48 49 49 44 42 42 45 47 52 63 61 60 70 76 74 60 60 85 98 98 99 99 100 100 100 100 100 100 100 100 100 100 100 100 100 100 100 99 100 100 99 100 100 100 99 98 99 99 98 98 98 98 99 98 95 93 90 91 88 88 91 85 84 86 87 88 88 87 82 82 88 93 98
29 30 31 29 30 28 27 22 20 21 22 20 18 21 20 22 28 30 30 26 30 33 34 39 42 43 44 45 43 44 47 44 43 49 51 48 48 52 62 61 52 65 81 86 86 88 91 93 95 96 95 94 95 97 97 98 100 100 100 100 100 100 100 100 100 100 100 100 100 100 100 99 98 98 99 99 99 98 97 96 92 92 91 93 90 82 84 86 87 90 89 88 81 76 82 89 96
30 28 27 28 28 24 18 15 15 16 16 16 16 21 20 19 23 25 28 29 29 32 37 37 36 37 39 40 40 44 46 41 37 37 44 45 39 39 47 54 52 53 58 63 67 69 71 75 81 82 78 77 82 86 85 87 94 98 99 100 100 100 100 99 99 99 100 100 100 100 100 100 100 99 99 98 98 98 98 98 97 95 96 96 91 85 84 86 89 92 90 87 80 74 78 85 93
27 25 26 27 23 18 16 17 18 16 16 15 16 19 19 20 21 22 23 26 28 30 36 35 33 35 35 35 38 42 41 36 36 34 35 38 40 43 45 49 53 55 51 48 52 55 56 59 64 62 59 61 67 71 72 73 79 82 86 92 96 98 99 98 97 99 100 98 100 100 99 100 100 100 100 100 99 99 97 99 100 97 99 98 94 87 85 89 91 93 91 88 83 77 80 81 85
23 22 23 23 21 19 17 19 17 15 14 13 18 20 21 19 19 23 22 22 25 29 34 35 33 32 30 33 37 37 36 35 33 33 31 31 35 41 46 48 49 51 50 48 47 47 47 48 49 49 49 53 56 58 59 58 57 57 61 68 78 87 92 92 90 93 97 96 99 99 98 98 97 97 98 100 100 99 97 97 100 98 97 98 97 91 87 89 90 93 91 87 85 81 82 80 81
24 23 22 21 20 19 19 19 17 17 14 12 20 21 21 21 23 26 23 21 22 28 35 36 34 31 29 31 35 35 33 34 33 32 31 30 31 34 40 44 46 45 43 44 44 41 40 40 41 43 43 43 44 43 43 41 41 42 45 47 53 64 73 79 78 79 86 89 92 93 93 93 93 92 92 96 99 100 100 97 97 96 97 96 97 95 92 93 92 93 88 83 83 83 84 82 80
24 21 21 21 19 18 19 19 16 19 15 12 21 22 19 24 30 29 25 24 26 32 34 34 34 31 29 29 30 33 33 33 33 32 31 30 31 31 33 34 37 39 37 36 36 34 33 33 33 35 36 37 36 35 33 32 31 31 32 34 37 42 48 59 63 63 65 68 74 76 80 83 82 81 78 82 87 91 96 99 98 94 96 98 98 96 96 96 93 91 86 84 83 81 85 86 84
22 19 20 21 19 17 16 16 14 17 16 13 19 20 18 23 31 29 28 29 29 34 32 32 35 30 28 29 30 32 33 33 33 32 32 32 31 31 31 30 31 32 32 31 30 29 28 27 27 28 29 30 30 30 31 31 30 28 27 26 27 28 31 37 43 49 51 53 58 59 63 69 69 67 61 62 69 74 75 79 92 97 97 98 99 97 96 97 94 90 88 88 85 81 82 86 89
21 20 19 17 15 17 16 15 16 17 16 14 15 19 18 19 26 28 28 28 28 32 33 34 36 31 29 31 32 33 33 33 33 32 31 30 30 31 31 31 32 32 31 29 29 28 27 26 25 25 25 25 25 26 27 29 30 28 27 28 26 25 25 25 27 32 38 44 50 51 53 58 60 57 48 44 48 56 52 48 67 89 98 100 99 98 95 97 96 94 95 92 91 87 80 81 85
18 17 16 16 15 17 18 16 17 18 17 16 15 18 17 16 21 25 24 25 29 32 34 35 35 33 33 33 33 32 33 32 31 30 28 27 28 30 32 34 34 33 33 30 27 27 28 28 26 25 25 24 24 24 24 25 26 26 25 27 29 27 26 25 24 23 25 30 37 45 51 55 58 56 48 39 33 34 35 33 40 57 72 81 89 96 93 95 97 97 98 95 95 92 84 82 83
15 14 14 19 18 16 17 16 16 16 16 15 15 16 17 18 21 23 22 23 29 31 31 33 34 34 33 32 32 31 30 29 27 26 25 25 26 27 30 32 33 33 33 32 29 27 28 30 29 27 25 24 24 24 24 25 24 25 24 24 25 26 26 27 28 26 24 23 24 30 37 45 53 58 56 49 42 34 28 26 26 30 36 43 56 72 80 87 93 95 98 94 94 94 90 90 87
15 15 16 20 18 14 16 16 14 15 16 14 13 15 16 20 23 23 22 21 24 30 33 32 31 30 30 30 29 28 26 25 24 23 23 23 24 26 27 29 31 33 33 33 31 29 28 29 31 29 26 24 23 24 24 24 24 24 24 24 24 24 25 25 27 28 27 26 24 23 24 29 36 47 54 55 52 45 36 28 23 22 24 28 33 41 51 62 72 81 90 91 92 92 91 95 95
16 18 18 18 16 15 15 14 15 17 18 17 15 16 16 20 24 25 24 22 26 35 38 35 30 28 28 27 25 24 23 24 24 23 24 23 24 24 26 28 30 32 33 32 32 31 30 29 31 31 29 27 26 26 27 25 24 23 22 22 23 23 23 24 24 24 26 26 25 24 23 22 23 28 37 48 54 51 44 34 26 21 20 23 26 29 33 38 45 53 64 75 84 88 89 93 97
18 20 19 17 16 14 13 13 19 21 18 17 15 14 16 18 23 29 30 30 34 39 38 32 29 27 26 24 23 24 24 25 26 26 26 25 25 25 25 27 29 31 32 32 32 33 33 32 33 34 33 32 30 30 32 32 29 25 23 22 21 21 21 21 22 21 22 23 23 24 23 22 21 21 22 29 42 51 52 43 32 24 19 19 20 24 27 28 31 32 37 45 58 70 79 84 88
19 18 16 18 16 13 14 15 20 21 16 15 14 16 18 15 21 32 35 37 37 35 33 29 27 25 23 23 22 23 24 25 26 26 27 27 26 26 26 27 28 30 32 33 32 33 36 35 35 36 35 33 34 34 35 36 33 30 26 24 24 22 21 20 19 19 18 18 20 21 20 20 19 20 20 19 22 32 41 44 40 30 22 19 18 19 20 22 24 25 27 26 28 36 48 60 69
18 16 15 17 15 11 13 15 16 18 17 15 14 15 17 16 23 34 35 37 37 33 31 28 26 24 23 24 24 24 25 25 25 25 26 27 27 28 29 29 30 31 33 34 35 35 36 38 37 37 36 34 36 37 37 37 34 31 27 26 29 26 24 22 18 20 20 18 18 18 16 17 17 16 17 18 17 17 20 26 33 33 28 21 18 18 17 16 17 19 23 24 23 20 21 28 38
18 16 14 14 13 11 11 12 12 15 17 15 13 12 17 24 29 33 34 34 33 31 28 26 24 24 24 24 24 25 26 26 26 27 27 28 29 31 32 33 34 34 35 36 39 38 38 40 39 37 36 34 35 35 37 37 32 29 24 25 31 28 27 26 22 23 24 22 22 19 14 13 14 13 13 14 14 13 13 13 15 21 27 24 19 17 17 17 15 13 15 19 23 23 21 19 19
21 16 13 11 11 11 9 11 10 12 16 14 12 11 19 30 31 32 34 31 28 26 24 23 23 22 23 23 24 24 25 26 27 28 29 31 33 34 37 39 39 39 39 39 42 43 41 41 40 38 35 32 31 30 31 32 28 25 20 22 28 25 24 26 25 26 26 26 24 19 15 14 11 10 11 11 11 11 10 11 10 11 14 17 16 15 15 16 15 14 13 14 15 17 20 21 20
21 16 16 13 10 11 9 11 11 12 14 13 13 12 19 28 28 32 34 29 24 23 22 22 22 23 23 23 23 24 24 26 28 30 32 35 38 40 42 44 44 44 45 44 44 44 42 41 39 37 34 32 29 27 26 26 23 20 17 18 21 19 19 22 24 24 25 27 25 19 16 15 13 12 11 10 10 9 8 8 9 9 9 10 11 12 12 12 13 12 12 12 12 12 13 16 19
19 14 19 15 9 11 10 11 13 12 12 14 15 13 20 29 29 32 33 28 23 21 22 22 23 23 23 24 24 26 27 29 32 35 38 41 44 46 47 48 47 46 44 43 41 39 39 37 37 35 32 31 29 26 24 23 21 18 17 16 15 15 15 17 19 21 24 27 25 21 18 15 14 14 13 12 9 9 9 8 6 7 8 8 8 9 9 10 11 11 11 12 12 11 11 11 14
16 14 18 14 10 12 11 12 13 12 12 14 17 17 24 31 31 33 32 27 23 21 22 22 23 24 23 24 25 27 30 34 38 41 44 46 48 50 48 46 43 41 37 34 32 32 33 33 33 33 31 31 29 27 25 23 21 19 17 16 14 13 12 12 14 17 21 25 24 22 19 16 16 17 16 14 10 11 13 13 12 10 7 8 10 9 8 8 9 10 9 10 11 10 10 11 11
15 14 16 15 14 13 12 14 13 14 15 15 17 21 28 32 32 34 32 25 22 21 22 22 23 24 24 25 26 29 33 37 41 45 49 48 48 48 45 41 36 33 30 29 29 30 32 33 33 33 33 32 31 30 28 25 23 21 19 18 16 13 11 10 11 13 15 18 21 23 21 18 21 24 20 14 12 15 17 18 23 24 20 19 13 6 7 9 9 9 9 9 10 9 8 8 9
14 16 18 16 17 16 13 14 14 16 16 15 19 22 25 31 32 34 32 25 22 22 22 23 24 24 25 25 27 30 34 40 44 47 49 46 44 42 38 35 33 33 35 35 36 38 39 40 41 41 40 39 37 35 32 29 26 23 21 20 20 18 15 12 10 9 10 12 15 20 23 25 29 30 23 21 22 23 20 18 23 27 27 30 24 14 13 13 11 9 12 14 13 12 10 8 7
14 19 21 18 17 18 14 12 14 17 16 15 21 23 22 28 32 34 33 26 22 22 22 24 24 24 25 25 27 30 35 40 45 47 46 43 40 37 37 39 41 44 47 48 49 48 47 46 46 46 47 46 44 42 39 37 33 30 28 27 28 29 28 26 22 16 11 10 12 18 26 32 33 30 26 26 27 25 24 25 24 19 20 35 43 35 28 30 29 26 26 27 25 21 17 13 12
15 18 22 21 19 19 16 13 13 15 16 17 22 22 22 27 30 33 34 27 22 22 23 24 24 24 25 25 27 30 34 39 44 46 45 43 41 41 45 49 53 54 54 55 54 51 48 46 46 46 48 49 50 48 44 42 41 40 38 36 36 38 38 39 40 36 28 20 17 20 25 25 23 23 23 20 20 22 26 31 26 15 18 40 60 56 48 54 59 56 53 52 47 37 31 27 22
18 19 21 20 19 20 19 17 14 16 21 21 19 19 23 27 29 33 34 28 23 22 23 24 24 25 25 26 28 31 35 38 42 45 46 46 46 49 53 55 57 57 56 55 53 50 48 45 46 45 46 47 47 46 44 43 44 44 43 41 40 41 42 44 47 49 45 37 31 26 19 16 17 23 30 29 29 36 41 43 38 31 32 50 73 74 65 65 69 69 66 64 60 54 52 50 42
23 24 23 21 21 20 20 19 16 20 26 24 18 17 22 27 29 33 34 28 23 23 23 24 24 25 26 27 30 33 36 39 44 47 48 49 50 53 56 57 58 55 52 51 48 46 45 44 44 43 42 41 40 40 40 42 43 43 44 43 42 42 42 44 46 50 50 46 42 37 27 20 19 24 34 38 38 45 52 52 52 53 53 62 77 78 70 67 70 72 71 72 71 67 64 56 49
25 26 23 23 24 21 18 18 16 20 26 24 19 17 20 28 30 31 33 28 23 23 23 24 25 25 26 29 33 37 38 40 47 52 51 51 52 56 57 56 58 55 48 45 44 44 42 39 38 38 37 37 39 40 38 40 41 41 42 43 41 41 41 41 43 48 50 47 48 49 44 36 33 34 35 36 34 34 36 42 56 66 65 69 77 77 73 70 71 73 75 80 82 77 69 60 56
23 23 22 23 24 21 17 17 16 18 23 23 19 16 22 30 29 29 31 26 23 23 23 24 25 26 28 32 35 38 40 42 47 50 50 51 52 53 50 46 48 45 38 35 37 39 37 34 34 34 32 32 35 37 34 34 36 36 37 38 37 37 40 43 44 45 45 47 50 55 56 53 54 55 52 48 45 36 28 35 58 71 69 70 75 76 75 72 73 78 80 82 81 77 74 71 68
21 21 22 23 23 21 18 17 17 16 22 24 18 17 26 31 28 27 28 25 23 23 23 24 25 27 30 33 35 36 40 44 46 47 48 48 46 43 37 34 34 32 29 30 32 33 33 34 35 35 33 32 33 32 33 34 36 37 37 36 35 36 40 43 44 45 46 49 51 53 56 56 57 61 62 61 60 54 42 36 44 53 57 65 72 73 74 75 75 78 81 79 74 72 73 73 70
20 20 22 24 23 21 20 18 18 17 19 23 20 20 27 29 26 26 25 24 24 24 24 27 28 31 33 33 35 37 39 42 42 42 41 39 37 32 26 25 27 30 33 34 34 34 36 38 38 39 39 39 37 36 38 40 40 42 43 42 43 44 46 47 48 50 51 51 50 48 49 50 53 55 57 60 65 67 60 48 38 35 38 51 69 73 70 72 74 74 75 76 74 73 71 70 72
21 22 23 25 23 24 26 22 19 18 19 23 22 22 28 29 25 25 26 26 26 27 29 32 32 33 33 33 34 34 36 38 37 35 33 30 27 23 21 25 30 35 36 35 37 40 41 43 46 48 48 47 45 45 45 45 45 47 48 49 51 52 52 52 52 52 51 50 49 49 50 51 52 53 55 59 62 65 67 62 50 39 32 34 53 71 71 67 71 73 72 74 76 76 73 69 70
23 24 23 25 23 24 27 23 19 18 23 26 22 20 24 28 29 27 27 28 27 28 30 32 32 32 32 33 32 32 32 33 31 29 25 22 21 20 24 32 36 35 37 41 45 47 47 48 50 51 52 52 53 53 51 48 48 50 51 52 53 54 54 56 57 55 52 52 52 53 52 53 55 56 57 58 56 57 62 66 61 50 42 32 34 56 71 67 66 70 71 72 73 74 73 69 68
22 23 23 23 23 24 25 22 22 20 22 24 21 22 22 23 30 29 27 27 25 28 31 30 31 33 33 32 31 32 32 29 27 25 22 21 21 25 31 35 34 36 43 48 50 51 49 49 50 53 57 60 62 63 62 60 56 55 58 60 60 60 61 62 63 63 60 58 57 57 57 57 59 58 54 52 50 49 53 63 67 60 54 51 42 45 62 68 66 69 71 71 70 70 70 67 68
22 22 22 23 23 25 25 23 26 25 23 21 19 24 24 21 27 29 27 28 28 29 32 32 33 33 33 33 32 32 28 23 19 18 20 21 24 31 35 32 35 43 48 48 49 51 51 53 55 60 67 69 69 73 74 72 70 69 72 74 72 70 69 67 68 70 70 69 67 65 64 62 59 56 52 50 46 45 48 55 64 68 69 71 63 52 57 67 70 70 71 72 71 70 69 66 67
24 22 23 25 26 28 27 25 25 22 22 21 16 19 22 22 28 30 27 29 30 29 30 32 34 34 33 32 30 29 26 20 17 16 19 24 29 35 32 30 40 49 48 47 49 51 56 62 64 66 70 69 68 71 72 72 74 78 80 80 78 75 73 73 75 76 76 75 73 69 65 62 60 57 55 53 47 44 48 51 65 83 89 88 82 66 57 65 72 70 68 71 73 72 72 70 69
24 23 24 26 26 27 26 23 21 20 23 24 17 16 23 25 27 32 30 28 29 30 31 33 33 34 34 30 27 27 25 22 21 21 23 29 34 31 28 34 44 47 46 44 44 50 60 69 70 70 71 67 63 65 68 70 72 73 73 73 74 75 77 79 80 79 76 72 68 66 64 62 61 60 58 56 50 49 51 55 67 81 86 91 96 86 68 64 72 72 67 69 72 73 76 76 73
23 23 23 23 23 22 22 21 21 23 26 27 20 16 24 27 22 24 30 30 31 33 33 34 34 33 31 28 27 25 21 20 21 24 29 31 29 27 33 43 46 45 43 40 43 54 64 68 69 68 65 61 59 65 71 71 70 69 65 65 68 69 72 73 70 67 65 63 64 64 64 63 63 64 64 63 60 62 62 63 66 69 73 80 89 93 84 73 74 76 74 75 76 77 81 80 76
21 21 20 21 21 18 18 18 21 28 29 25 20 17 24 28 18 19 31 39 42 42 37 35 36 30 25 26 27 23 19 19 22 28 31 29 27 33 44 49 46 43 41 44 55 65 66 65 64 62 58 57 62 72 74 69 69 71 68 67 68 67 66 65 62 62 64 66 68 69 69 69 71 71 73 73 72 72 72 71 69 66 69 76 84 93 95 89 85 82 80 82 82 84 88 86 81
20 20 20 24 23 19 19 19 24 34 32 24 20 18 22 26 21 24 37 41 41 43 42 40 35 28 24 24 23 20 18 19 24 29 28 30 39 46 49 47 43 46 52 61 70 70 66 65 65 65 64 66 72 74 68 65 69 73 76 76 74 73 73 72 71 71 72 72 71 72 73 74 76 76 75 76 75 75 75 76 76 76 79 86 93 98 98 97 94 87 85 86 84 85 89 90 87
20 20 22 31 33 32 36 33 32 36 31 23 20 20 22 21 22 29 35 35 35 38 41 41 34 26 21 19 18 18 18 20 23 26 27 36 48 50 47 44 45 57 69 72 69 65 63 65 69 74 75 73 73 68 62 67 76 80 85 86 83 80 78 76 75 73 71 71 72 75 77 75 75 76 77 76 75 77 79 80 81 86 88 89 93 97 98 99 96 92 93 91 89 89 89 92 92
21 22 27 36 42 50 54 45 41 42 34 24 19 22 28 23 23 28 28 30 35 36 37 36 29 22 18 16 17 17 18 20 22 26 33 43 48 46 45 48 54 66 72 66 62 64 66 65 65 72 80 77 69 65 67 75 84 89 90 88 83 78 75 73 73 72 72 73 77 79 78 75 75 77 80 82 80 79 81 83 83 83 84 83 85 89 91 92 93 95 95 91 90 93 94 95 94
22 20 24 31 36 49 55 47 50 53 43 32 25 28 35 29 26 28 27 30 33 31 31 28 22 18 17 17 16 16 18 20 24 31 38 43 43 43 46 52 61 70 69 62 63 67 69 67 62 67 80 82 71 69 77 85 89 88 84 81 77 72 70 73 74 75 76 77 80 81 79 77 75 75 77 81 83 83 83 82 81 80 80 80 80 81 86 89 91 93 93 88 83 85 89 91 91
22 18 23 30 28 33 41 41 42 47 45 38 29 28 27 23 26 28 28 30 28 27 26 21 18 18 18 16 13 16 20 21 29 36 39 40 41 45 49 55 62 69 68 64 64 66 66 66 65 68 78 79 73 74 81 84 83 77 73 71 68 67 70 76 78 78 78 78 79 80 79 77 75 74 74 76 77 79 80 80 78 77 77 81 84 85 89 94 96 96 95 92 85 79 79 83 85
22 23 27 28 24 26 37 40 33 35 45 39 28 31 28 21 26 26 23 25 24 26 25 18 16 17 17 16 13 16 19 23 33 38 38 39 42 46 51 55 60 66 68 65 64 66 65 66 67 69 72 73 74 78 77 75 73 70 68 67 68 71 77 80 80 78 78 78 79 79 78 76 75 75 73 73 74 74 75 77 77 77 77 83 89 91 91 92 93 94 93 93 93 89 87 87 87
24 29 28 24 27 28 31 41 43 45 52 42 31 41 40 30 29 25 21 27 27 25 24 19 19 18 14 13 13 15 19 26 36 39 37 40 44 49 53 56 59 64 68 66 65 66 66 67 67 67 70 73 76 76 73 72 73 70 68 70 74 79 81 80 79 78 78 79 79 78 76 76 75 76 75 75 75 74 74 75 75 75 75 78 82 85 87 85 83 85 84 85 89 91 92 92 90
25 27 25 26 36 37 32 44 56 58 61 54 43 46 43 32 30 28 25 29 28 23 20 18 19 19 14 12 12 16 21 29 37 37 36 40 47 53 56 57 60 63 65 65 64 65 65 66 66 67 71 73 74 73 72 74 75 73 73 76 79 80 79 79 79 79 79 78 79 78 78 79 79 80 80 79 79 77 76 75 73 72 72 72 74 75 77 76 74 75 78 80 83 84 86 87 89
27 26 25 26 32 36 37 42 48 52 62 66 61 57 43 28 25 26 25 26 22 19 17 16 18 17 13 13 14 18 24 32 37 35 35 42 50 55 57 59 62 64 65 64 64 65 64 64 65 68 71 72 71 73 75 76 75 76 76 77 78 77 77 79 79 79 80 80 82 84 84 86 86 87 87 85 84 82 80 78 76 74 73 73 72 72 73 73 72 71 71 75 78 80 80 79 81
29 30 32 34 32 32 35 39 41 49 61 69 73 67 45 26 21 21 22 21 17 17 18 17 17 15 12 14 17 20 26 34 39 39 40 45 52 56 58 61 63 64 63 63 64 65 65 65 66 69 71 70 72 74 76 76 76 77 77 77 77 77 78 80 80 82 84 84 87 90 91 93 94 95 94 92 89 87 85 84 81 80 79 77 75 75 75 75 74 74 73 74 74 75 77 76 75
26 29 32 34 36 36 40 47 48 51 58 61 71 75 54 30 20 18 18 17 16 18 19 17 15 13 13 15 17 22 28 34 40 40 42 48 54 58 61 63 64 64 63 63 66 67 67 67 68 71 72 72 75 78 78 78 79 79 79 78 78 79 80 82 83 85 87 90 93 96 97 98 99 99 99 98 97 94 93 90 88 88 87 84 82 81 81 81 81 84 85 83 78 74 75 76 75
Wind_Speed
3 3 4 4 4 5 6 5 6 4 3 6 6 7 3 2 4 7 8 7 3 3 6 4 4 5 3 4 5 8 10 7 4 2 1 1 2 4 5 5 6 5 7 8 8 6 5 5 8 4 2 5 7 5 4 4 4 2 2 2 3 4 4 3 6 6 6 9 8 10 11 10 8 10 9 5 3 3 4 4 5 7 9 10 8 10 12 11 10 9 9 9 9 10 10 7 8
3 3 4 4 3 5 5 3 4 4 4 6 6 5 4 3 5 8 9 7 5 4 3 4 5 6 4 4 5 4 8 11 8 5 5 2 3 4 5 5 4 4 7 10 13 12 2 2 7 6 5 6 5 3 4 5 4 2 2 3 4 6 8 9 10 8 7 8 9 11 11 10 9 11 11 7 4 4 5 5 5 6 5 6 8 11 13 11 12 12 11 11 10 10 9 6 7
2 1 2 3 3 6 5 3 4 5 5 7 6 3 5 6 8 9 9 7 5 3 3 3 3 6 4 2 2 4 5 9 9 6 5 3 3 3 4 4 4 4 5 9 13 16 9 1 3 5 6 7 7 5 5 5 4 4 4 6 6 6 8 10 11 10 9 8 8 10 11 10 10 10 11 9 7 5 7 7 6 7 5 5 8 11 11 11 13 14 14 13 12 11 10 7 8
2 2 3 4 5 5 4 4 4 6 6 6 5 4 6 7 10 9 7 6 2 2 1 1 1 4 3 2 3 4 6 7 8 6 5 5 3 3 3 3 4 4 3 7 10 13 16 10 2 2 3 6 7 7 8 7 6 4 6 8 7 6 7 9 10 11 10 9 8 9 10 10 10 10 10 10 10 7 7 8 7 8 8 6 8 10 10 11 12 13 15 15 14 11 11 11 11
1 2 4 4 6 3 3 4 4 6 6 6 6 6 8 9 9 8 5 4 0 0 1 1 1 3 3 5 4 2 4 3 4 6 5 3 3 5 5 4 4 3 1 3 5 7 10 11 5 2 4 6 7 7 8 8 9 8 8 8 8 7 6 9 10 10 10 10 8 8 9 10 10 11 10 9 10 8 7 8 8 9 9 8 9 10 8 9 10 11 13 15 15 12 12 12 14
1 3 3 4 5 3 4 4 4 6 4 5 6 7 10 11 9 9 7 2 1 1 1 2 0 4 4 5 5 4 3 1 1 3 4 2 5 6 6 4 3 3 1 2 1 2 3 5 3 3 4 4 5 7 8 8 10 11 11 11 9 6 4 6 7 5 5 7 8 7 7 8 9 10 10 10 11 10 9 9 9 9 8 7 8 10 8 8 8 9 11 13 14 13 14 11 13
3 4 3 5 4 2 5 5 5 5 4 5 7 8 10 11 11 11 12 6 2 3 3 2 3 3 3 6 4 6 3 3 3 1 4 4 5 6 6 5 1 3 2 3 3 3 2 1 1 1 3 2 2 4 7 8 9 11 12 14 14 13 12 11 10 8 7 6 6 4 3 4 6 9 10 11 11 11 11 9 10 10 9 6 7 9 9 9 8 8 9 10 12 13 15 13 12
3 2 2 4 3 4 4 5 5 5 2 5 7 8 10 10 11 12 13 11 3 2 3 4 4 4 2 6 3 6 5 4 5 4 5 5 5 5 6 6 1 3 4 4 5 5 6 6 4 5 4 3 3 2 4 6 7 8 11 14 15 15 16 16 15 14 11 9 8 7 6 5 3 3 5 9 11 11 11 10 11 12 11 8 6 8 9 9 9 9 8 8 10 11 12 13 13
1 2 2 4 3 3 4 5 4 4 3 5 6 7 10 8 8 10 11 12 6 2 2 4 3 4 4 8 5 6 6 5 5 5 7 6 6 5 6 7 5 2 2 1 2 3 5 6 5 7 6 6 6 4 4 3 3 4 7 9 10 11 12 14 15 15 13 11 9 9 8 8 7 6 4 4 8 11 12 11 12 13 12 10 6 7 8 9 9 9 9 8 9 10 10 11 13
2 2 2 3 3 4 4 3 3 4 4 6 7 6 9 9 8 9 10 12 6 1 1 2 4 3 6 8 7 6 5 7 7 7 8 8 10 8 7 9 9 7 5 5 4 3 1 2 3 5 5 6 7 7 7 6 5 4 3 3 3 4 4 6 8 10 11 11 10 10 8 7 7 8 7 6 5 8 11 12 12 13 14 12 9 8 8 9 10 9 9 10 10 11 11 9 11
3 1 3 4 3 4 4 4 5 6 6 7 6 7 9 10 8 8 9 9 5 3 1 1 5 5 7 6 6 6 6 8 8 9 9 9 11 11 10 9 10 10 10 9 8 7 6 4 2 2 2 3 5 7 7 7 7 7 7 6 6 6 5 5 4 5 7 7 7 9 8 7 6 6 6 5 6 7 9 11 12 14 14 12 10 9 9 10 10 9 9 10 11 12 11 8 9
4 1 2 5 3 4 5 6 6 6 8 6 5 10 9 9 7 8 9 8 6 3 3 2 1 4 5 4 6 8 9 8 9 10 10 10 10 10 10 10 9 9 10 11 9 9 9 7 6 6 6 5 4 4 5 6 6 6 7 7 7 7 7 7 6 6 6 5 6 8 7 7 6 5 5 5 5 6 7 9 11 12 12 13 12 10 10 10 9 9 8 9 10 11 11 9 8
5 4 4 5 4 5 6 6 6 7 7 5 8 9 9 9 8 8 11 10 6 2 2 4 3 1 2 6 9 9 9 8 9 10 10 11 10 10 9 10 10 9 10 10 10 10 9 9 9 9 8 7 5 5 4 5 5 5 6 6 7 7 7 7 6 6 7 6 6 8 9 7 6 6 5 5 6 6 7 7 11 12 10 12 14 11 11 11 10 8 7 7 7 9 9 9 9
5 5 5 5 3 4 5 5 7 8 6 8 10 9 8 6 7 7 10 10 4 4 3 4 3 4 1 5 8 10 10 9 10 10 11 11 11 11 9 9 9 10 10 10 10 11 11 11 10 9 9 8 8 8 8 8 8 8 7 7 7 6 6 6 6 5 6 6 5 6 8 9 6 5 5 5 6 5 7 8 10 12 10 10 12 12 11 11 11 8 8 7 6 7 7 7 8
6 6 4 4 4 4 5 5 8 7 6 11 10 10 11 4 4 5 7 8 6 7 3 3 4 3 2 2 6 13 12 11 10 10 12 12 12 12 11 11 10 10 11 12 11 12 12 12 11 11 10 9 9 9 9 10 10 10 9 8 8 8 7 6 6 5 4 2 2 4 4 6 6 5 4 4 5 3 5 7 9 10 9 9 11 12 11 11 12 11 11 8 6 6 5 5 5
6 6 4 3 4 4 6 8 9 7 8 13 10 12 14 5 4 5 6 5 4 7 5 6 7 6 8 10 13 16 14 12 11 10 11 10 10 11 12 12 12 12 12 13 14 14 14 13 13 12 12 11 10 10 9 9 9 10 9 10 10 10 9 8 7 5 5 3 1 1 2 4 5 4 2 2 3 3 1 2 6 8 8 9 9 10 12 13 14 14 13 10 7 6 5 5 4
6 5 4 4 4 5 8 9 9 9 11 15 15 15 15 8 6 6 6 3 4 8 9 10 10 11 14 16 16 15 13 12 11 8 7 6 7 9 11 12 13 15 15 15 16 16 16 15 15 14 14 13 12 11 10 9 9 9 8 8 9 9 9 9 8 6 6 5 4 3 2 1 3 2 3 4 3 2 3 3 1 6 9 10 10 9 10 13 14 14 12 10 8 6 5 6 6
6 3 4 4 5 7 9 10 10 12 12 15 18 15 13 12 10 8 6 2 8 9 11 12 12 15 15 15 14 13 12 10 8 6 6 6 7 8 11 13 14 16 17 17 18 18 17 18 17 16 16 15 14 13 12 11 11 10 9 9 8 8 8 7 8 8 8 8 7 6 6 4 3 1 1 3 7 7 5 4 2 1 5 8 8 9 9 10 12 12 10 9 9 7 5 6 7
4 3 4 3 7 8 10 12 12 13 13 15 17 15 12 12 13 9 7 3 4 6 9 11 13 15 13 14 13 12 11 10 10 9 10 10 11 12 12 14 16 17 17 18 20 20 20 20 20 19 19 19 18 17 16 15 14 13 12 11 11 10 9 8 8 9 8 9 9 8 8 7 7 5 3 2 4 8 8 6 4 3 1 2 4 6 7 7 9 10 9 8 8 8 5 4 6
3 4 4 5 8 8 13 14 14 14 13 15 16 15 12 11 13 9 10 11 4 5 8 5 9 13 12 13 13 13 13 13 13 13 14 14 14 15 15 16 16 17 18 18 20 21 22 22 22 22 22 22 21 21 20 19 18 17 16 15 15 14 13 12 11 10 9 10 10 10 10 8 8 7 7 7 4 6 9 8 6 5 3 1 2 3 4 5 6 8 8 8 8 8 7 5 4
4 4 4 8 9 7 13 15 14 14 12 13 15 14 13 11 10 9 12 11 6 11 13 7 8 13 13 13 13 14 14 15 15 15 16 16 16 16 16 17 17 17 17 18 20 22 23 23 24 25 25 25 24 24 23 23 22 21 21 20 19 18 18 17 16 15 13 12 11 12 12 11 10 8 7 9 8 6 8 9 8 7 6 4 2 1 2 3 4 5 6 7 8 8 9 8 6
3 5 7 9 9 7 12 15 13 13 12 12 15 14 12 11 9 13 15 9 8 12 11 10 13 13 13 14 14 14 15 16 16 17 19 19 19 18 17 17 17 17 18 19 20 21 22 23 24 25 27 27 26 26 25 24 25 25 25 24 22 22 21 21 20 20 19 17 15 14 14 14 14 12 10 9 9 9 11 13 12 10 9 7 5 5 4 3 2 3 3 4 6 7 8 9 10
2 7 10 9 9 8 10 14 12 12 12 13 15 13 12 11 10 16 19 14 12 13 14 16 16 15 15 15 15 15 16 16 17 18 19 20 20 19 18 18 18 18 19 19 19 21 22 23 24 25 27 29 28 27 26 24 26 27 27 27 25 25 25 24 24 23 23 23 22 20 18 18 17 16 15 13 12 11 12 14 16 15 13 11 9 7 7 6 6 6 4 3 3 4 6 7 10
6 6 9 8 9 10 10 12 13 11 9 12 16 16 12 10 9 16 19 14 13 15 17 17 17 17 16 17 16 16 16 17 18 18 18 20 20 20 19 18 18 18 19 20 19 21 22 23 24 25 26 30 28 26 26 25 27 28 29 29 27 27 27 27 26 25 24 25 25 25 24 23 21 20 19 17 16 15 14 14 15 16 17 15 13 11 10 9 8 9 9 8 7 6 6 6 7
10 7 6 6 6 9 10 11 16 14 6 13 19 18 11 12 12 18 16 11 13 14 16 17 17 16 16 17 16 16 16 16 17 17 18 18 19 19 20 19 18 18 19 20 20 21 23 24 25 25 26 29 28 26 26 26 28 29 30 30 27 29 29 28 28 25 25 25 25 26 27 26 25 24 23 21 19 19 19 18 17 16 16 17 17 16 14 13 12 12 11 11 12 12 12 11 9
7 6 4 5 5 6 11 13 22 19 7 17 22 18 9 13 11 14 13 10 13 14 16 15 15 16 16 16 16 16 16 16 16 16 17 17 18 20 20 21 20 19 19 19 21 23 25 28 29 29 30 32 31 29 28 27 29 30 31 29 27 29 30 29 28 26 25 25 25 27 29 28 28 27 26 25 24 22 21 21 21 20 18 18 19 19 18 17 17 17 15 13 14 15 16 16 15
4 4 2 3 5 5 12 16 24 18 7 21 23 16 8 9 6 8 10 9 12 14 15 14 15 16 15 15 15 15 16 16 16 16 17 17 19 20 20 21 21 20 21 23 25 28 29 32 35 35 36 36 35 33 31 30 31 32 32 30 27 29 30 28 28 27 27 26 27 28 29 28 28 28 27 27 27 26 25 23 23 22 22 21 20 22 21 20 20 21 21 19 18 18 18 19 19
5 4 3 3 4 5 13 15 20 16 9 23 24 13 9 13 9 8 8 8 11 13 14 13 14 14 13 14 14 14 15 15 15 16 18 18 18 20 21 22 26 26 29 31 33 35 35 36 37 38 39 39 38 38 36 34 33 34 34 32 30 30 30 28 27 26 26 26 27 29 29 29 28 28 27 27 27 27 26 26 25 24 23 23 23 23 23 23 23 24 25 24 23 23 22 21 21
6 3 1 7 2 2 12 11 16 16 12 23 22 9 8 11 9 9 8 9 11 11 13 12 12 12 12 12 12 13 13 14 15 16 17 18 17 20 24 27 32 34 36 38 39 39 38 38 38 39 39 38 39 39 38 37 36 36 35 34 33 32 30 28 27 26 25 25 26 27 28 28 27 28 27 27 28 27 25 25 25 24 24 23 24 24 24 24 25 25 26 27 27 27 27 25 24
9 3 2 7 3 3 11 8 14 15 14 23 18 7 5 9 8 9 8 9 10 10 11 10 10 10 10 10 11 11 11 12 14 15 16 21 22 24 29 33 36 38 40 40 40 39 38 39 38 38 39 39 39 38 37 36 35 34 33 33 33 33 32 29 27 25 25 25 25 25 25 25 25 26 28 28 27 26 25 24 22 22 23 23 25 26 24 24 24 25 26 27 28 29 30 29 28
10 3 3 5 5 6 8 8 15 12 14 23 16 7 4 8 7 7 8 9 8 8 9 8 8 8 8 8 8 8 9 10 11 14 19 26 28 30 34 36 39 39 38 37 36 36 34 33 32 32 33 33 33 34 33 33 33 32 29 29 28 30 31 30 28 26 25 24 23 23 22 22 22 24 26 26 26 25 26 25 23 22 22 23 25 26 23 23 24 24 24 24 26 28 29 30 31
8 4 3 5 6 7 7 11 17 11 15 22 13 6 3 7 6 6 8 7 7 8 8 7 7 6 6 5 5 5 6 7 9 15 22 29 31 35 38 38 36 33 30 29 28 26 24 24 24 23 23 23 25 26 24 25 27 27 24 22 21 22 23 24 25 25 25 23 22 20 19 20 21 23 24 24 24 25 25 25 25 25 24 23 23 24 23 22 22 21 21 22 23 25 26 27 29
6 7 7 8 9 9 7 11 16 13 16 17 9 7 2 6 7 6 8 7 8 7 7 7 6 5 4 3 3 3 5 7 9 14 22 28 32 35 35 32 28 24 23 22 22 21 21 21 21 20 20 20 21 21 18 18 19 20 18 17 16 16 16 15 16 17 19 21 19 18 18 20 22 23 24 24 25 25 25 25 26 26 25 22 22 22 21 18 17 17 17 17 19 22 23 23 25
7 7 6 8 10 9 9 11 14 13 14 13 9 7 2 7 7 6 9 8 8 7 7 6 4 3 2 2 3 5 8 10 11 15 20 22 25 26 24 22 21 21 21 21 21 22 21 22 21 20 20 20 20 20 19 18 18 18 17 16 16 15 14 14 13 12 15 17 17 19 22 23 23 23 22 22 23 22 22 23 25 25 23 21 20 20 19 17 17 17 17 17 17 19 18 18 20
8 9 6 8 10 9 11 13 13 11 11 12 9 8 3 8 6 7 9 9 9 8 7 5 4 2 0 2 5 8 12 13 13 17 19 19 20 20 19 19 19 20 21 21 22 23 22 23 22 21 21 21 21 21 20 20 19 17 17 17 17 16 14 14 13 13 15 15 15 20 26 29 28 25 22 21 22 21 21 22 23 22 20 19 19 20 19 18 17 17 18 18 17 18 18 19 20
8 8 7 10 10 8 12 14 12 11 11 10 9 11 4 7 6 7 8 8 9 9 7 6 4 2 2 4 9 13 16 16 16 18 19 19 21 21 20 21 21 21 21 22 22 22 21 21 22 23 23 23 22 21 20 19 18 17 18 18 18 18 16 15 15 16 16 15 15 18 25 30 29 26 25 25 27 27 24 23 22 21 20 19 20 20 20 18 17 17 17 17 17 18 19 20 20
6 6 8 10 8 10 15 14 12 12 10 8 10 13 4 8 6 6 7 6 8 8 7 5 3 2 4 8 14 17 17 17 18 19 20 20 20 20 21 23 22 23 23 22 21 20 21 22 23 25 25 23 21 21 22 22 22 21 21 20 20 21 20 18 18 17 16 16 17 18 20 22 21 21 22 26 28 29 29 25 21 21 20 19 20 21 20 19 18 18 18 18 18 19 19 18 17
4 6 9 8 7 12 15 12 12 13 10 8 11 13 4 9 5 7 7 5 5 5 5 4 2 2 7 12 17 19 18 17 19 20 20 20 20 21 24 25 24 24 23 21 21 23 23 24 24 24 24 22 21 22 23 24 24 24 24 24 23 24 23 22 21 20 19 19 19 19 19 17 17 18 20 22 23 25 29 29 25 24 22 21 22 22 22 21 21 21 21 21 21 20 19 18 16
4 6 8 7 9 12 10 9 12 12 8 7 12 13 3 10 6 7 6 4 4 3 4 2 1 5 11 16 19 21 19 20 22 22 22 23 24 26 28 28 24 22 21 22 23 24 24 24 24 24 23 22 21 22 22 23 24 24 24 25 24 24 24 23 22 21 21 21 20 20 20 19 19 21 21 21 21 23 27 30 31 30 27 23 23 23 23 22 21 21 21 21 20 19 19 18 17
3 6 8 7 12 13 8 10 16 15 8 5 11 11 3 9 7 7 6 5 5 4 3 1 3 8 13 17 20 20 21 22 24 24 26 28 29 30 29 25 21 21 23 24 24 24 25 24 24 23 22 22 21 21 21 22 23 23 23 23 22 23 23 23 23 22 20 20 20 20 20 21 22 22 22 22 24 26 26 28 32 32 31 27 24 24 24 23 22 21 20 20 20 19 19 18 17
4 6 9 10 14 15 11 12 17 14 2 1 9 8 3 7 7 6 5 6 6 4 2 2 5 10 14 17 20 20 22 24 26 29 32 33 32 30 25 21 22 24 24 24 24 24 24 23 23 23 23 22 22 21 22 23 22 21 21 20 21 22 23 23 22 22 22 22 22 22 22 23 23 23 25 25 27 28 28 28 29 31 31 30 27 26 25 24 23 23 21 21 21 21 20 19 18
2 7 12 14 15 16 15 14 14 9 2 3 9 9 4 3 8 6 5 6 4 3 3 5 9 12 16 18 20 21 23 27 30 33 34 32 30 26 22 22 25 25 23 23 23 23 22 22 23 23 22 21 20 20 20 20 20 19 19 20 21 22 22 22 21 21 22 22 23 24 24 24 24 26 28 28 28 29 30 29 28 29 29 28 27 26 26 25 24 24 23 22 22 22 22 22 21
4 9 14 15 15 14 14 14 9 6 6 5 6 9 10 3 7 6 4 5 3 3 4 8 12 16 18 20 20 22 27 32 35 35 32 30 27 23 22 26 26 23 22 24 23 22 22 22 21 20 20 19 19 19 17 18 17 17 17 18 19 20 21 22 21 21 21 21 23 24 25 25 26 28 29 29 29 30 31 29 27 26 26 25 26 25 25 26 24 23 22 22 22 22 22 25 24
6 13 17 15 14 13 13 12 7 6 8 5 5 11 11 6 3 5 4 4 4 3 5 9 15 19 20 20 23 25 31 35 35 34 31 27 23 22 26 27 24 21 23 24 24 24 23 20 19 20 20 19 19 21 20 20 21 20 20 20 20 21 21 22 22 21 21 22 24 25 27 29 29 29 29 29 30 29 29 29 25 23 23 23 23 24 25 25 24 24 23 22 22 22 22 24 24
7 14 17 14 15 14 11 9 6 7 8 4 9 13 10 7 1 6 7 4 3 5 6 9 17 20 20 24 27 29 32 33 32 31 28 24 23 26 28 25 22 22 24 26 27 25 21 20 20 20 20 20 22 22 21 19 20 22 23 23 23 23 23 23 23 23 24 26 28 29 29 30 29 28 28 28 28 27 26 26 24 23 25 24 21 22 24 25 24 24 24 23 22 23 23 23 23
10 15 16 14 12 10 8 5 5 8 6 5 13 14 9 8 4 2 5 5 7 7 6 9 16 20 24 29 30 31 34 32 30 28 24 24 27 28 25 22 22 24 27 30 29 23 20 20 21 22 23 25 24 21 19 19 22 24 24 24 25 25 26 26 27 28 29 29 29 29 28 28 27 26 26 25 24 24 23 23 24 23 25 26 24 22 21 23 23 23 23 23 22 22 22 22 23
13 14 14 11 6 5 4 2 3 7 4 7 15 15 10 9 7 5 1 1 3 3 7 10 14 23 30 31 29 32 34 32 29 26 24 27 28 24 21 22 25 29 31 30 23 18 20 23 24 27 27 26 23 19 20 24 26 24 23 23 23 24 25 25 26 27 27 26 26 26 26 25 25 24 24 23 22 22 21 22 23 24 24 25 26 25 20 18 19 20 21 22 22 23 22 22 22
12 10 11 8 3 2 2 0 2 5 6 10 16 14 12 10 7 4 4 4 1 3 7 10 17 27 31 30 31 33 32 30 28 26 27 28 25 21 22 26 30 32 28 21 17 19 24 25 26 27 24 20 19 20 24 25 24 22 20 20 19 20 20 20 21 22 22 23 24 24 23 23 22 22 22 22 21 21 21 21 21 21 20 20 22 24 22 18 18 19 20 21 22 23 24 23 23
11 10 10 9 6 5 4 5 6 4 6 12 16 13 10 9 5 3 4 3 4 7 8 12 20 28 30 32 34 32 29 27 26 26 28 26 23 23 27 31 32 27 21 19 22 25 26 24 24 23 21 19 21 23 24 22 20 19 18 17 17 17 18 19 20 21 22 22 22 22 21 21 21 20 20 20 20 20 19 20 19 18 18 18 18 20 20 19 20 20 20 21 21 22 23 22 22
10 10 11 9 7 8 7 8 8 6 7 13 14 10 8 9 5 4 2 3 5 8 10 15 22 26 30 33 32 29 27 26 25 26 26 24 24 27 30 32 28 21 21 24 25 24 22 22 24 23 21 21 23 23 21 20 18 17 16 17 17 18 20 20 21 21 21 21 20 20 20 20 21 21 21 20 20 20 20 20 20 20 21 21 21 21 20 21 21 21 21 23 23 21 20 20 20
7 8 7 7 5 4 6 7 7 9 11 14 10 6 8 11 5 5 3 3 4 9 11 17 24 28 30 29 28 27 24 24 24 23 24 26 27 29 30 29 25 21 23 25 25 23 22 24 25 24 22 21 23 22 20 18 17 18 18 19 20 20 21 21 20 20 20 20 20 20 21 21 22 22 22 21 21 21 22 22 22 23 23 24 24 24 23 22 23 23 24 25 27 25 22 21 21
4 6 5 6 5 3 6 7 9 11 12 10 6 4 8 8 3 7 7 6 4 10 13 20 27 29 28 27 27 24 23 24 23 22 27 29 28 29 29 27 25 23 24 25 25 24 25 26 26 23 22 22 22 21 19 19 20 21 22 22 21 21 20 20 20 19 19 20 20 21 21 21 22 22 22 22 22 22 22 23 23 24 24 24 24 23 22 21 20 22 23 24 27 30 29 27 25
3 4 5 7 6 4 6 7 8 10 9 7 6 7 10 7 4 7 4 5 7 10 16 25 29 28 27 26 26 23 23 24 21 22 29 30 28 28 27 27 26 24 25 25 24 26 27 26 24 23 22 22 21 20 20 22 23 23 22 20 19 19 19 19 20 20 20 20 20 20 21 21 21 22 22 22 22 22 22 23 23 23 24 24 23 22 22 22 21 22 24 24 24 25 26 25 25
4 3 6 7 4 4 4 6 6 7 8 6 6 9 13 10 4 4 11 14 12 12 19 26 28 27 26 26 25 23 23 22 21 23 28 30 29 27 26 26 25 24 24 25 26 27 26 24 23 23 22 21 21 21 22 23 22 21 20 19 18 19 19 19 20 21 21 20 20 20 21 22 22 22 22 22 22 22 23 23 23 23 23 23 23 23 23 23 23 24 27 29 28 26 25 25 24
5 1 3 4 1 2 5 5 5 8 9 7 6 10 11 8 8 12 16 16 15 17 20 23 26 27 27 27 25 23 22 20 21 25 29 31 29 26 25 26 25 24 25 26 26 25 23 23 22 22 21 22 22 22 22 21 20 19 19 19 19 20 20 20 20 20 20 20 21 21 22 22 22 22 22 22 23 23 23 23 23 23 23 23 23 23 23 23 24 25 25 27 29 29 30 30 28
5 5 1 2 2 3 2 1 3 7 10 9 10 11 7 6 10 14 15 14 15 19 19 20 26 27 26 27 24 23 22 19 21 27 31 30 28 26 26 25 25 25 26 25 24 23 22 23 22 21 22 22 22 21 21 20 19 18 19 20 20 21 21 21 20 20 21 21 21 21 22 22 21 22 22 22 23 23 24 24 23 23 23 23 23 23 23 23 24 24 25 25 26 26 28 30 29
1 1 2 3 1 1 2 2 0 4 7 8 11 11 7 6 10 12 14 15 15 19 19 21 26 27 25 25 23 22 21 19 21 27 30 29 27 26 25 25 25 26 25 24 22 22 22 22 22 22 22 21 21 21 21 20 20 19 20 20 21 22 21 20 20 21 21 21 21 21 21 21 21 21 21 22 23 23 23 24 24 24 23 23 24 23 23 23 23 24 24 24 25 26 26 27 27
2 3 2 1 2 2 4 3 1 0 5 7 9 11 10 9 7 8 13 15 15 20 23 24 27 27 24 23 22 21 20 20 21 25 30 28 26 26 25 25 25 25 24 23 22 22 22 22 22 22 21 21 22 22 21 21 20 20 21 21 22 21 21 20 21 21 20 20 20 20 20 21 21 21 21 22 22 22 22 23 23 24 23 23 23 23 23 23 24 24 24 24 24 25 26 27 27
Wind_Direction
289 301 311 334 340 297 283 295 279 230 248 271 280 290 316 32 328 310 313 327 317 11 18 9 21 16 2 6 74 80 45 23 0 339 338 54 111 82 49 36 55 71 91 87 62 26 332 2 31 9 294 217 213 219 228 247 263 268 272 193 191 201 182 205 209 205 218 228 245 248 250 261 236 212 215 219 235 218 194 200 224 233 239 234 226 249 251 247 254 249 243 247 245 256 267 264 281
288 304 316 341 317 283 286 284 280 263 259 274 285 304 343 336 315 329 347 3 13 33 38 40 57 51 51 82 93 72 49 49 42 57 59 74 155 83 64 58 75 94 104 93 61 46 334 277 49 73 130 153 177 188 211 219 229 246 263 203 208 207 204 219 224 218 215 232 256 252 246 255 243 221 214 212 218 212 205 200 218 231 242 234 217 238 250 255 262 260 254 255 251 255 263 252 268
261 273 297 313 247 265 281 248 266 286 284 287 295 354 14 322 328 357 19 22 34 64 71 62 64 39 5 246 21 9 56 57 42 61 53 69 134 83 88 80 102 106 107 111 77 62 59 11 17 66 120 131 139 144 160 176 195 228 241 216 214 213 214 226 231 226 219 232 253 252 245 245 241 228 217 212 209 200 205 202 210 212 203 211 218 237 249 259 265 263 259 258 257 254 259 251 254
230 186 204 264 248 252 263 243 263 289 292 295 310 2 9 342 339 354 27 25 34 114 55 8 48 43 9 313 20 37 81 67 39 64 52 59 100 86 115 105 124 120 98 110 97 82 69 66 40 22 122 124 134 155 156 160 167 179 214 218 215 214 223 228 229 229 223 229 245 251 248 246 242 231 220 212 207 198 205 205 206 207 207 206 214 237 251 260 263 261 256 253 253 246 252 256 261
139 195 178 241 263 275 267 268 270 276 296 311 313 337 348 345 345 344 10 31 337 193 30 312 340 102 82 42 27 18 65 64 44 83 73 57 115 101 101 99 123 123 137 132 106 104 78 73 91 125 145 124 133 172 180 173 160 153 175 191 208 216 227 225 224 232 232 233 240 248 252 252 248 237 230 221 209 203 207 208 207 207 213 217 218 235 253 263 260 254 251 246 247 247 246 252 269
149 204 177 233 269 318 275 269 279 280 326 342 313 325 333 337 349 339 329 335 204 246 218 253 91 122 107 68 54 52 56 87 53 102 110 120 138 118 89 75 129 132 161 188 156 142 97 75 96 147 171 144 138 182 206 190 165 163 167 154 152 150 153 194 197 205 223 230 231 239 247 250 251 242 234 227 219 210 209 207 207 206 207 223 233 234 241 256 262 255 249 244 246 253 244 239 265
192 192 193 231 235 246 259 267 288 295 26 19 317 319 324 329 338 323 310 302 198 179 213 217 152 149 120 120 92 60 70 115 103 152 144 138 146 133 96 66 156 203 245 261 277 274 251 267 279 211 189 181 165 187 207 203 180 169 170 162 148 127 129 160 166 147 132 153 180 192 206 231 248 245 238 232 226 217 216 211 204 204 202 211 238 238 236 243 254 254 252 248 247 254 248 235 247
179 213 218 247 231 200 258 278 286 295 351 358 323 319 320 321 325 314 307 302 278 175 207 174 179 249 153 133 111 62 70 105 124 140 119 122 145 144 115 88 83 217 238 265 272 277 273 273 276 265 253 243 243 209 199 213 205 176 168 169 164 148 148 166 171 160 146 141 150 157 152 139 156 220 243 238 233 223 219 216 209 209 207 207 229 237 233 234 241 249 254 252 248 253 254 242 233
192 281 225 250 272 225 262 272 278 303 313 333 319 316 326 332 320 308 302 299 298 277 202 155 206 255 123 112 101 88 81 80 106 120 105 97 101 115 119 98 84 138 183 215 285 293 282 281 280 269 268 266 263 261 249 245 239 197 168 163 165 162 160 172 178 175 168 161 164 168 159 147 142 133 123 179 220 224 218 215 214 214 211 211 224 234 229 228 234 243 252 256 253 251 258 251 227
224 302 281 263 278 261 277 291 312 332 334 327 319 333 346 348 323 303 297 302 312 272 102 124 238 213 128 110 108 117 114 97 89 98 102 95 86 84 98 95 81 79 94 97 84 61 18 317 298 283 284 283 283 279 276 276 272 267 233 209 212 200 187 189 189 193 188 177 172 171 167 166 166 158 143 136 167 205 217 219 219 214 211 213 216 223 226 224 228 234 249 259 258 249 255 257 230
260 287 309 279 271 291 317 331 330 338 337 321 342 33 10 346 319 301 293 294 303 260 118 213 240 175 139 114 113 126 124 114 99 98 103 103 96 87 90 94 92 87 83 82 86 85 79 74 49 0 345 329 309 295 295 299 291 290 283 280 281 274 273 262 241 232 220 210 197 184 177 180 182 179 179 175 165 173 198 212 218 215 213 216 212 213 221 223 223 226 242 256 258 249 248 254 238
300 315 298 285 311 330 333 327 323 334 327 320 36 45 9 339 319 313 314 303 288 232 108 15 284 155 171 128 120 133 122 117 110 107 101 99 102 102 99 95 100 102 94 86 85 87 85 81 76 72 62 40 11 339 330 325 315 311 303 300 301 298 289 282 282 272 256 249 241 226 206 191 187 200 213 205 193 184 189 197 205 208 210 215 212 209 215 221 220 224 234 240 249 248 244 250 250
329 345 308 301 343 328 325 318 323 333 326 10 47 31 2 342 336 333 321 307 290 242 76 30 21 307 232 114 120 135 125 119 116 111 103 98 97 102 108 106 104 101 99 97 90 85 82 79 76 74 68 56 46 39 31 20 14 14 357 338 328 317 305 298 297 285 270 265 261 253 240 221 191 190 217 223 216 211 206 203 199 197 196 204 208 210 212 217 216 217 226 220 230 243 246 250 255
333 346 313 305 328 316 331 324 338 338 332 27 34 11 4 359 347 343 319 312 352 28 26 40 355 302 209 124 150 147 132 125 117 110 105 98 93 92 97 105 107 100 91 88 87 82 78 74 73 74 73 67 63 63 60 59 52 43 30 14 6 350 333 318 318 310 279 269 267 259 249 246 229 196 197 208 216 217 214 213 209 209 210 201 199 202 204 212 215 212 218 219 228 241 248 247 253
332 332 301 300 318 326 7 352 343 335 341 16 28 3 350 3 353 346 341 334 29 44 20 31 3 313 346 11 155 141 130 125 116 109 105 95 89 82 78 79 83 90 86 77 74 73 71 67 66 66 67 65 62 62 60 62 60 55 50 43 37 27 15 358 344 342 328 301 263 260 251 243 235 213 193 192 196 201 219 219 221 227 233 222 206 204 205 207 211 212 216 226 235 241 254 246 244
326 317 287 299 327 342 18 358 342 329 338 357 10 0 342 355 27 357 4 355 39 51 37 30 27 30 38 55 99 122 125 122 117 108 103 94 85 74 68 65 61 65 67 67 63 59 57 57 56 53 54 56 54 53 52 54 53 51 52 53 50 47 41 32 20 359 349 350 321 284 263 236 222 198 156 150 171 163 157 226 227 231 237 234 223 220 220 214 214 216 220 229 233 237 250 251 251
303 294 301 318 339 359 5 355 350 332 329 338 344 354 343 339 23 16 2 18 71 58 61 56 54 64 73 87 101 115 121 121 118 113 106 97 87 74 65 60 56 52 49 52 51 48 46 45 44 42 41 42 42 43 43 43 42 38 37 41 41 43 45 43 40 28 11 354 333 329 327 275 230 189 96 63 66 107 93 58 223 228 236 241 240 236 229 220 219 222 225 228 229 230 234 251 268
306 298 322 341 2 13 7 354 354 339 330 333 335 350 346 333 359 12 346 76 104 79 76 76 78 83 88 99 106 111 115 117 113 110 105 94 84 75 66 58 54 50 45 42 40 40 38 34 33 32 31 28 27 28 28 29 27 26 23 24 22 20 22 23 26 29 29 22 7 343 333 329 304 265 113 67 47 39 43 48 54 210 230 238 247 249 245 231 224 225 227 227 232 235 224 245 256
336 339 322 22 15 18 25 7 2 350 337 332 332 342 341 343 356 351 331 343 128 100 89 94 95 93 94 97 101 104 104 101 96 90 86 79 73 68 64 57 52 48 42 38 34 34 33 30 27 25 24 22 19 18 16 15 12 11 10 10 8 7 7 1 359 2 7 12 16 11 0 346 327 318 315 340 31 20 11 16 33 39 131 196 221 232 243 247 240 235 228 222 229 234 220 238 253
1 339 328 40 5 10 34 17 7 356 340 336 335 337 340 359 357 339 332 321 306 56 51 72 106 102 99 97 97 97 93 89 85 82 77 70 67 62 58 54 48 44 39 36 32 30 30 26 24 23 21 19 18 17 13 10 8 5 2 1 359 357 356 355 352 347 345 346 352 358 2 1 348 332 320 315 327 352 348 345 356 4 13 120 190 188 205 224 240 247 239 226 221 224 216 218 254
352 347 8 25 350 6 31 17 8 357 344 340 341 346 346 353 357 357 347 325 349 29 10 8 106 107 101 99 96 93 88 84 79 75 71 65 63 58 55 51 46 43 37 35 30 28 28 23 21 19 19 17 16 16 13 8 6 4 1 359 357 355 351 350 349 344 339 335 337 341 341 344 348 344 328 310 302 311 320 319 323 335 349 352 319 279 219 204 212 230 240 235 225 219 214 211 218
345 50 46 22 4 22 27 17 15 0 353 352 352 353 338 337 14 32 21 13 20 13 16 58 96 100 99 100 93 90 84 80 75 70 66 62 59 55 51 48 43 40 35 32 28 25 24 21 18 15 15 15 13 14 12 8 5 3 1 358 357 356 353 350 347 345 341 336 332 333 333 332 331 331 330 321 307 293 294 303 305 312 327 337 333 326 316 302 265 235 227 233 231 224 216 214 214
0 68 46 38 36 36 27 20 17 3 4 5 352 335 320 334 19 50 48 49 43 42 66 80 90 93 95 96 89 87 81 77 73 67 65 60 56 51 47 44 40 36 32 30 25 21 19 16 14 11 10 10 10 9 7 4 1 359 357 356 354 353 353 351 348 346 344 341 334 331 332 330 327 324 321 320 318 304 294 295 297 301 310 320 321 320 321 320 315 302 281 264 256 241 229 222 219
35 51 40 53 54 40 31 22 16 8 7 6 346 322 326 353 21 58 59 58 63 69 81 85 90 92 91 90 85 82 78 74 71 66 64 59 54 49 44 40 36 33 29 26 22 17 14 11 9 8 5 5 5 3 2 -0 356 354 353 352 349 347 350 348 348 348 344 343 337 332 332 330 328 326 322 318 316 313 308 299 295 293 298 308 311 308 307 309 316 313 300 289 285 282 277 257 237
42 31 44 61 64 40 23 21 13 7 5 1 346 329 4 68 70 64 61 64 78 83 90 91 92 91 87 85 81 79 75 72 68 64 61 55 50 45 41 36 30 27 23 18 14 9 7 5 4 3 1 359 0 358 357 354 352 350 349 349 345 341 343 343 344 345 341 340 337 332 331 330 328 327 323 318 315 314 314 310 308 301 294 296 302 304 300 297 302 307 305 297 290 286 287 285 272
36 15 47 53 73 41 16 24 7 355 4 1 342 327 18 92 83 65 68 75 90 93 94 92 92 88 83 81 77 75 72 68 64 60 56 49 43 38 33 29 24 21 15 10 5 1 359 356 356 357 355 354 355 354 352 350 347 346 345 346 343 337 338 338 338 339 336 335 333 329 330 330 328 327 324 319 314 314 314 312 312 312 306 301 300 301 300 295 296 299 300 297 295 292 287 286 283
356 2 105 44 76 54 20 29 6 347 7 5 338 317 23 80 53 67 84 88 101 97 95 93 91 87 82 81 76 73 69 65 61 55 50 42 35 29 23 19 15 11 4 0 357 354 353 350 350 350 350 350 349 349 348 346 344 343 342 341 338 334 335 335 333 332 331 329 327 326 326 326 325 324 323 320 315 314 314 311 310 310 310 311 308 304 303 300 297 297 297 294 293 294 291 287 284
347 359 174 11 57 69 23 26 7 349 1 359 334 316 50 67 54 89 103 108 111 100 101 96 91 89 84 82 75 73 68 63 58 49 42 34 27 20 14 9 4 -0 355 353 350 349 348 347 346 345 345 346 345 345 344 343 342 340 339 338 334 332 331 331 329 327 326 323 322 322 321 321 321 319 318 316 315 315 314 311 310 309 307 310 309 305 306 304 300 299 297 294 292 292 292 288 284
359 349 232 3 350 77 25 19 5 359 355 351 336 329 60 64 68 106 113 120 117 106 107 98 94 92 85 83 77 75 68 61 53 43 35 26 19 10 4 360 356 353 349 347 345 345 344 344 343 342 343 344 344 343 342 341 340 339 337 335 332 330 329 327 325 324 320 318 318 318 318 318 316 315 313 311 312 313 312 311 310 309 308 309 304 302 306 305 303 302 301 298 295 293 292 289 285
15 357 296 357 323 13 24 8 0 5 358 352 344 335 58 74 91 113 118 130 125 115 112 101 102 95 89 88 78 76 65 57 46 33 21 10 7 2 357 353 350 348 346 345 345 345 345 345 345 343 342 343 343 342 340 338 337 337 334 332 329 326 326 325 322 319 315 314 313 312 313 314 312 308 307 308 310 308 307 309 309 308 308 305 299 300 304 302 300 301 301 301 298 296 294 293 289
16 352 255 0 355 2 19 9 1 6 358 353 346 326 34 82 96 119 128 140 134 122 118 109 110 102 96 91 79 77 59 46 33 18 6 359 357 354 351 349 348 348 347 347 347 346 344 343 341 339 338 338 338 336 335 333 332 333 330 327 324 322 323 323 321 318 315 313 311 310 310 308 305 303 304 306 306 304 303 303 303 303 302 299 297 300 300 297 296 297 298 297 296 295 295 296 294
13 358 336 7 2 349 2 13 5 2 353 349 343 327 20 85 89 128 138 146 143 128 124 119 116 109 101 91 77 67 38 25 15 1 354 352 349 348 348 348 348 348 345 342 341 338 333 332 330 326 324 324 326 326 323 322 323 324 322 318 314 312 317 319 318 317 315 313 311 310 306 301 299 299 301 302 301 301 301 299 298 297 298 299 298 298 297 294 293 293 291 289 287 289 291 292 292
12 11 358 354 353 343 345 360 358 355 349 343 332 319 337 85 76 125 145 146 144 135 131 128 122 115 102 83 57 24 1 356 357 350 346 345 344 345 345 345 344 339 333 328 326 322 317 319 320 317 312 311 314 313 307 304 306 308 305 304 300 299 304 305 306 309 313 315 311 305 300 299 302 304 303 302 302 302 301 299 297 298 298 298 295 294 293 289 285 282 279 276 277 281 283 284 286
3 9 358 349 345 337 337 342 349 357 346 329 316 319 35 81 65 122 146 145 146 145 141 141 135 126 102 57 8 349 341 338 343 340 335 336 337 337 336 334 331 328 324 320 318 316 314 314 313 313 311 309 309 306 300 296 297 298 296 297 296 293 295 296 292 294 306 311 308 303 301 304 309 311 309 307 308 306 303 300 299 300 299 296 290 287 287 282 276 271 267 264 264 268 269 270 274
346 349 347 343 338 337 339 332 341 358 339 321 323 327 42 88 75 117 143 151 150 152 152 150 145 141 315 342 335 329 328 328 328 329 330 330 328 323 320 318 318 318 317 316 315 313 312 312 309 309 310 308 305 303 298 294 293 295 294 295 296 293 294 296 293 293 301 302 301 303 306 308 309 309 308 308 310 308 305 302 298 298 297 291 283 281 282 279 274 269 267 263 258 255 256 259 263
329 337 342 334 329 332 334 326 334 348 328 320 334 328 354 100 93 117 142 156 153 155 156 152 158 196 277 316 320 317 320 324 324 324 326 325 321 318 315 314 312 314 315 315 314 311 311 312 309 309 309 306 303 301 299 294 292 293 294 296 297 296 296 298 296 297 298 297 296 300 305 308 308 307 305 306 310 309 307 305 299 295 293 286 279 278 278 275 271 268 265 262 258 256 257 259 260
323 339 345 335 326 326 328 324 332 340 324 314 326 326 7 105 101 119 139 158 155 157 158 157 180 223 288 307 313 314 315 321 323 322 320 317 317 317 317 316 314 315 317 318 318 317 315 313 311 310 310 307 301 300 300 296 292 291 293 296 295 295 297 300 299 298 297 296 298 299 302 305 306 304 305 307 308 306 307 306 299 293 290 282 275 274 274 271 267 264 262 260 259 260 258 255 252
355 358 344 333 331 325 318 316 330 336 322 308 319 326 54 110 105 119 136 156 158 166 165 162 199 263 307 310 311 314 314 317 320 319 318 318 317 318 319 317 314 314 317 320 320 318 317 316 315 314 313 310 304 302 302 298 294 290 289 291 292 291 292 296 296 296 295 294 296 298 300 303 303 303 305 306 304 302 305 305 300 294 289 280 273 271 270 268 265 262 262 262 261 259 256 252 246
21 6 345 333 336 328 311 317 331 326 311 306 316 319 77 114 102 111 123 128 134 153 145 132 322 314 315 315 315 315 317 319 321 321 321 321 319 319 319 316 315 317 319 320 319 319 321 322 321 320 318 315 310 307 305 302 298 292 287 286 288 288 288 291 290 290 291 290 291 293 294 296 297 300 303 301 299 298 299 301 301 298 291 280 272 270 267 265 264 263 261 260 260 256 253 249 241
47 9 352 336 335 333 320 327 326 317 310 315 315 310 124 120 111 109 111 116 125 133 126 112 329 322 317 319 321 322 322 321 321 322 321 320 319 319 321 321 323 324 321 320 321 322 324 323 322 322 322 319 316 313 310 307 303 296 289 285 286 286 288 288 287 286 287 288 289 289 289 290 292 295 296 295 296 296 294 295 298 297 291 281 269 266 264 261 260 260 258 255 254 253 252 248 241
74 34 359 328 326 327 311 315 319 315 321 34 321 313 131 135 142 124 123 144 141 150 191 266 313 322 322 324 326 327 326 323 322 321 321 320 321 321 324 328 329 326 323 323 324 325 323 323 323 323 321 319 317 315 313 310 306 300 292 288 288 288 289 289 287 286 287 288 289 289 290 290 291 292 293 293 294 294 291 289 290 291 289 281 270 261 259 259 258 257 255 253 251 250 251 250 245
33 27 350 319 318 319 309 319 321 319 32 16 336 333 344 123 143 137 148 164 157 179 237 307 325 326 328 328 327 327 327 327 324 322 322 323 323 324 325 328 327 324 325 326 326 325 324 324 324 323 322 321 321 321 321 318 313 305 299 297 295 294 293 291 289 288 288 289 288 289 290 289 289 290 291 291 292 293 291 286 284 286 284 279 272 262 257 256 255 254 253 253 251 249 249 250 247
342 350 329 312 316 316 313 322 318 326 342 324 347 352 331 344 130 142 161 168 177 207 262 320 331 328 329 328 325 326 328 328 325 322 323 324 325 326 327 327 326 324 326 327 325 323 323 324 325 327 326 325 325 324 323 322 316 310 310 309 303 300 297 292 291 291 291 290 289 290 290 289 289 289 288 287 289 290 288 284 283 283 280 277 273 265 257 254 253 253 252 251 251 249 248 248 247
338 331 319 313 317 312 311 314 304 326 324 292 11 4 326 320 99 145 171 178 200 247 300 322 326 326 327 326 325 326 328 329 327 326 325 324 325 326 325 325 324 324 326 327 325 321 320 323 324 324 322 320 320 317 315 314 310 308 311 310 304 300 297 293 292 293 293 292 291 290 290 290 289 288 286 285 287 287 283 281 278 276 275 276 275 267 258 253 253 253 252 252 252 249 246 246 246
331 318 311 306 305 299 295 302 305 318 311 307 2 357 330 319 25 163 192 217 303 345 352 331 323 323 324 325 327 327 327 329 329 328 326 326 326 324 323 323 324 325 326 325 323 317 315 320 322 321 320 319 319 316 314 314 311 306 304 303 299 296 294 292 292 293 293 292 291 290 289 289 289 288 286 286 286 282 278 276 274 272 269 268 272 270 261 254 253 254 252 252 251 249 246 244 244
314 310 309 303 298 292 279 282 308 311 305 341 353 352 338 315 323 163 212 271 340 358 358 333 322 324 325 325 327 328 328 329 329 327 326 326 324 322 324 326 325 324 323 322 319 314 315 321 322 319 316 316 315 313 312 316 315 308 303 300 297 294 293 292 291 291 291 291 290 290 289 289 289 288 287 287 285 279 275 272 272 275 273 265 263 263 259 255 254 253 253 252 250 248 246 243 242
313 323 326 317 300 288 277 248 306 316 328 356 349 345 331 309 328 12 48 339 0 338 330 327 321 326 327 326 327 329 330 329 327 326 326 326 324 323 327 328 326 323 321 320 319 319 321 320 319 316 313 312 311 312 316 317 316 313 309 304 299 298 297 296 295 293 293 292 291 291 291 290 288 288 288 286 283 279 276 273 272 274 274 268 261 254 250 254 256 254 254 253 251 248 246 244 242
330 343 338 333 319 287 290 224 347 327 339 350 346 337 317 306 328 20 105 115 49 321 320 321 324 328 330 329 328 329 329 327 327 326 325 326 328 329 329 327 325 325 326 327 328 327 324 321 321 319 318 318 315 316 318 317 316 315 314 311 307 305 304 302 301 299 298 297 294 294 293 291 290 289 289 286 284 281 278 276 275 273 272 269 263 255 251 256 260 260 259 256 253 249 246 245 243
352 356 351 356 2 358 347 349 347 325 327 339 341 337 312 308 351 52 126 107 8 343 325 319 326 330 331 330 329 328 328 327 327 327 326 327 329 329 330 328 327 330 337 337 331 327 324 325 327 324 323 323 322 320 318 317 318 317 316 315 314 312 309 307 304 302 300 298 297 295 293 293 293 291 289 287 285 283 279 277 276 275 273 270 267 263 261 259 255 256 257 253 253 252 246 244 243
5 6 4 7 3 355 342 336 332 314 316 326 335 347 323 313 352 50 77 56 2 339 326 321 326 332 333 330 327 327 328 328 328 327 328 327 327 327 329 331 329 329 335 334 331 328 325 327 328 323 319 321 324 323 320 318 319 319 318 316 314 313 310 307 304 301 300 298 296 294 293 293 292 290 288 286 284 282 280 277 275 274 274 272 270 270 270 265 256 255 254 246 245 252 251 247 247
16 15 4 8 15 345 318 324 324 313 311 313 328 5 334 322 4 76 118 172 309 326 328 329 331 334 333 329 328 328 328 330 328 328 330 328 326 326 328 331 329 325 328 330 330 330 326 325 326 322 318 320 324 324 322 321 319 318 317 313 311 310 308 306 304 302 301 299 296 293 292 291 290 289 287 284 283 281 278 277 276 275 274 272 271 269 268 266 261 260 259 250 244 248 253 253 251
3 4 5 6 358 293 277 285 290 297 299 303 325 351 324 327 101 138 176 204 305 333 331 336 337 335 333 331 331 330 329 330 328 329 332 329 326 326 327 330 328 322 325 328 327 327 325 323 323 322 319 319 322 322 321 319 317 315 314 311 310 309 307 306 304 303 301 299 296 293 292 291 290 289 287 285 283 280 279 277 276 276 275 273 270 266 263 262 260 256 255 255 249 246 251 253 252
338 353 4 339 309 278 285 284 284 294 295 303 325 321 320 331 149 167 225 298 334 331 328 338 340 336 335 333 333 331 329 329 327 330 333 331 328 327 326 329 328 322 322 324 324 324 323 323 322 321 319 318 321 320 318 317 316 315 314 313 312 310 308 307 305 304 302 299 296 293 292 291 290 289 288 287 285 281 280 278 277 277 275 273 270 267 264 262 263 256 247 249 253 249 249 250 249
359 4 345 317 243 213 295 304 307 313 305 302 321 322 320 328 332 328 334 334 332 329 335 341 339 337 337 334 332 332 329 327 327 330 333 332 330 328 326 327 327 325 323 322 323 322 322 323 322 321 320 319 319 318 318 318 317 318 317 314 313 311 310 308 305 305 303 300 298 295 293 292 291 290 288 287 286 283 281 280 278 277 275 273 270 268 266 263 264 261 252 249 253 253 251 250 250
60 130 337 342 263 299 324 319 320 327 322 310 319 325 320 328 336 334 337 335 328 331 337 339 337 337 337 334 332 331 329 329 331 332 333 332 330 328 328 327 326 327 325 324 324 324 324 324 323 323 321 320 319 319 319 319 318 317 315 313 314 313 311 309 307 306 303 301 298 296 295 293 291 290 289 287 286 284 282 280 279 277 275 273 270 267 267 266 264 262 258 254 252 251 250 251 252
126 175 152 27 312 307 315 267 302 327 325 314 316 319 317 337 337 332 336 335 329 333 337 336 335 335 333 333 332 331 330 328 330 333 334 332 330 328 328 327 327 328 327 326 326 325 325 325 325 324 321 321 322 321 320 320 318 316 313 313 314 313 312 310 308 306 304 301 299 298 296 294 292 291 288 287 285 283 282 281 279 277 275 273 271 268 267 266 265 262 260 257 253 249 249 249 251
132 234 4 5 323 239 232 235 315 341 322 313 314 310 299 321 333 335 337 336 337 340 337 332 332 332 332 332 330 328 328 325 325 332 335 333 330 329 328 327 328 329 328 327 327 326 326 326 326 325 324 325 324 322 321 320 318 316 315 315 314 314 313 310 308 306 304 302 300 298 297 295 293 290 289 287 285 283 281 280 278 276 275 273 271 269 268 266 264 262 261 259 255 250 248 248 248
349 325 351 21 14 355 312 309 93 109 296 294 295 294 288 295 323 344 338 337 343 340 333 329 330 331 330 330 328 326 326 325 325 330 334 332 329 329 328 327 329 329 329 328 327 327 327 327 327 326 325 324 322 322 322 320 318 317 316 315 315 315 313 310 309 307 304 303 301 299 298 296 294 291 289 287 285 283 281 279 278 275 273 272 270 268 267 265 263 262 261 259 256 252 250 249 249